Location: Capvern
(43.1036°N, 0.3160°E)
Time: 03:34:04
(UTC+00:00)

Cosmos 1356 - Pass Details

Date: 16 October 2021
Orbit: 433 x 436 km, 81.1° (Epoch: 02 December)

Event Time Altitude Azimuth Distance (km) Brightness Sun altitude
Rises 17:41:45 0° 354° (N) 2,435 7.1 -5.8°
Reaches altitude 10° 17:43:52 10° 0° (N) 1,562 6.1 -6.2°
Maximum altitude 17:47:11 51° 77° (ENE) 564 3.5 -6.8°
Drops below altitude 10° 17:50:30 10° 155° (SSE) 1,551 5.9 -7.4°
Sets 17:52:35 0° 160° (SSE) 2,416 7.0 -7.8°
